Year,Month,Day,Hour,Minute,Value (Times are PST for temperature in C)
2009,05,25,00,00,11.60
2009,05,25,00,02,11.60
2009,05,25,00,04,11.50
2009,05,25,00,06,11.40
2009,05,25,00,07,11.40
2009,05,25,00,08,11.40
2009,05,25,00,09,11.40
2009,05,25,00,10,11.40
2009,05,25,00,11,11.40
2009,05,25,00,12,11.40
2009,05,25,00,13,11.40
2009,05,25,00,14,11.30
2009,05,25,00,16,11.30
2009,05,25,00,17,11.30
2009,05,25,00,18,11.30
2009,05,25,00,19,11.30
2009,05,25,00,20,11.30
2009,05,25,00,22,11.20
2009,05,25,00,23,11.20
2009,05,25,00,24,11.20
2009,05,25,00,25,11.20
2009,05,25,00,26,11.20
2009,05,25,00,27,11.20
2009,05,25,00,28,11.20
2009,05,25,00,29,11.20
2009,05,25,00,30,11.20
2009,05,25,00,32,11.20
2009,05,25,00,33,11.20
2009,05,25,00,34,11.10
2009,05,25,00,35,11.10
2009,05,25,00,36,11.10
2009,05,25,00,37,11.10
2009,05,25,00,38,11.10
2009,05,25,00,39,11.10
2009,05,25,00,40,11.10
2009,05,25,00,41,11.10
2009,05,25,00,42,11.00
2009,05,25,00,43,11.00
2009,05,25,00,44,11.00
2009,05,25,00,45,11.00
2009,05,25,00,46,10.90
2009,05,25,00,47,10.90
2009,05,25,00,48,10.90
2009,05,25,00,49,10.90
2009,05,25,00,51,10.80
2009,05,25,00,53,10.80
2009,05,25,00,54,10.80
2009,05,25,00,55,10.80
2009,05,25,00,56,10.80
2009,05,25,00,57,10.80
2009,05,25,00,58,10.80
2009,05,25,00,59,10.80
2009,05,25,01,00,10.70
2009,05,25,01,02,10.70
2009,05,25,01,03,10.70
2009,05,25,01,04,10.70
2009,05,25,01,05,10.70
2009,05,25,01,06,10.70
2009,05,25,01,07,10.70
2009,05,25,01,08,10.70
2009,05,25,01,09,10.70
2009,05,25,01,10,10.70
2009,05,25,01,11,10.70
2009,05,25,01,12,10.70
2009,05,25,01,13,10.60
2009,05,25,01,14,10.60
2009,05,25,01,15,10.60
2009,05,25,01,16,10.60
2009,05,25,01,17,10.60
2009,05,25,01,18,10.60
2009,05,25,01,19,10.60
2009,05,25,01,20,10.60
2009,05,25,01,21,10.50
2009,05,25,01,22,10.50
2009,05,25,01,23,10.50
2009,05,25,01,24,10.50
2009,05,25,01,25,10.50
2009,05,25,01,26,10.50
2009,05,25,01,27,10.50
2009,05,25,01,28,10.50
2009,05,25,01,29,10.50
2009,05,25,01,30,10.50
2009,05,25,01,31,10.50
2009,05,25,01,32,10.40
2009,05,25,01,33,10.40
2009,05,25,01,34,10.40
2009,05,25,01,35,10.40
2009,05,25,01,36,10.40
2009,05,25,01,38,10.40
2009,05,25,01,39,10.40
2009,05,25,01,40,10.40
2009,05,25,01,41,10.40
2009,05,25,01,42,10.30
2009,05,25,01,43,10.30
2009,05,25,01,44,10.30
2009,05,25,01,45,10.30
2009,05,25,01,46,10.30
2009,05,25,01,47,10.30
2009,05,25,01,48,10.30
2009,05,25,01,49,10.30
2009,05,25,01,50,10.30
2009,05,25,01,52,10.30
2009,05,25,01,53,10.30
2009,05,25,01,54,10.30
2009,05,25,01,55,10.30
2009,05,25,01,56,10.30
2009,05,25,01,57,10.30
2009,05,25,01,58,10.30
2009,05,25,01,59,10.30
2009,05,25,02,00,10.30
2009,05,25,02,02,10.30
2009,05,25,02,04,10.30
2009,05,25,02,05,10.30
2009,05,25,02,06,10.30
2009,05,25,02,08,10.30
2009,05,25,02,09,10.20
2009,05,25,02,10,10.20
2009,05,25,02,11,10.20
2009,05,25,02,12,10.20
2009,05,25,02,13,10.20
2009,05,25,02,14,10.20
2009,05,25,02,15,10.20
2009,05,25,02,16,10.20
2009,05,25,02,17,10.10
2009,05,25,02,18,10.10
2009,05,25,02,19,10.10
2009,05,25,02,20,10.10
2009,05,25,02,21,10.10
2009,05,25,02,22,10.10
2009,05,25,02,23,10.10
2009,05,25,02,24,10.10
2009,05,25,02,25,10.00
2009,05,25,02,26,10.00
2009,05,25,02,27,10.00
2009,05,25,02,28,9.90
2009,05,25,02,29,9.90
2009,05,25,02,30,9.90
2009,05,25,02,31,9.90
2009,05,25,02,32,9.90
2009,05,25,02,33,9.90
2009,05,25,02,34,9.90
2009,05,25,02,35,9.90
2009,05,25,02,36,9.90
2009,05,25,02,37,9.90
2009,05,25,02,39,9.90
2009,05,25,02,40,9.80
2009,05,25,02,41,9.80
2009,05,25,02,42,9.80
2009,05,25,02,43,9.80
2009,05,25,02,44,9.80
2009,05,25,02,45,9.80
2009,05,25,02,46,9.80
2009,05,25,02,47,9.80
2009,05,25,02,48,9.70
2009,05,25,02,49,9.70
2009,05,25,02,50,9.70
2009,05,25,02,51,9.70
2009,05,25,02,52,9.70
2009,05,25,02,53,9.70
2009,05,25,02,54,9.70
2009,05,25,02,55,9.70
2009,05,25,02,56,9.70
2009,05,25,02,57,9.60
2009,05,25,02,58,9.60
2009,05,25,02,59,9.60
2009,05,25,03,00,9.60
2009,05,25,03,02,9.60
2009,05,25,03,03,9.60
2009,05,25,03,04,9.50
2009,05,25,03,05,9.50
2009,05,25,03,06,9.50
2009,05,25,03,08,9.40
2009,05,25,03,09,9.40
2009,05,25,03,10,9.40
2009,05,25,03,11,9.40
2009,05,25,03,12,9.40
2009,05,25,03,13,9.40
2009,05,25,03,14,9.40
2009,05,25,03,15,9.40
2009,05,25,03,16,9.40
2009,05,25,03,17,9.40
2009,05,25,03,18,9.40
2009,05,25,03,19,9.40
2009,05,25,03,20,9.40
2009,05,25,03,21,9.40
2009,05,25,03,22,9.40
2009,05,25,03,24,9.40
2009,05,25,03,25,9.40
2009,05,25,03,26,9.40
2009,05,25,03,27,9.40
2009,05,25,03,28,9.40
2009,05,25,03,29,9.40
2009,05,25,03,30,9.40
2009,05,25,03,31,9.40
2009,05,25,03,32,9.40
2009,05,25,03,33,9.40
2009,05,25,03,34,9.40
2009,05,25,03,35,9.40
2009,05,25,03,36,9.40
2009,05,25,03,37,9.40
2009,05,25,03,38,9.40
2009,05,25,03,39,9.40
2009,05,25,03,40,9.40
2009,05,25,03,41,9.40
2009,05,25,03,42,9.40
2009,05,25,03,43,9.40
2009,05,25,03,45,9.40
2009,05,25,03,46,9.40
2009,05,25,03,47,9.30
2009,05,25,03,48,9.30
2009,05,25,03,50,9.30
2009,05,25,03,51,9.30
2009,05,25,03,52,9.30
2009,05,25,03,53,9.30
2009,05,25,03,54,9.30
2009,05,25,03,55,9.30
2009,05,25,03,56,9.30
2009,05,25,03,57,9.20
2009,05,25,03,58,9.20
2009,05,25,03,59,9.20
2009,05,25,04,00,9.20
2009,05,25,04,02,9.20
2009,05,25,04,03,9.20
2009,05,25,04,04,9.10
2009,05,25,04,05,9.10
2009,05,25,04,06,9.10
2009,05,25,04,07,9.10
2009,05,25,04,08,9.10
2009,05,25,04,09,9.10
2009,05,25,04,10,9.10
2009,05,25,04,11,9.10
2009,05,25,04,13,9.00
2009,05,25,04,14,9.00
2009,05,25,04,15,9.00
2009,05,25,04,16,9.00
2009,05,25,04,17,9.00
2009,05,25,04,18,8.90
2009,05,25,04,19,9.00
2009,05,25,04,20,8.90
2009,05,25,04,21,8.90
2009,05,25,04,22,8.90
2009,05,25,04,23,8.90
2009,05,25,04,24,8.90
2009,05,25,04,25,8.90
2009,05,25,04,26,8.90
2009,05,25,04,27,8.90
2009,05,25,04,28,8.80
2009,05,25,04,29,8.80
2009,05,25,04,30,8.80
2009,05,25,04,31,8.80
2009,05,25,04,32,8.80
2009,05,25,04,33,8.80
2009,05,25,04,34,8.80
2009,05,25,04,35,8.80
2009,05,25,04,36,8.80
2009,05,25,04,37,8.80
2009,05,25,04,38,8.80
2009,05,25,04,39,8.80
2009,05,25,04,40,8.80
2009,05,25,04,41,8.70
2009,05,25,04,42,8.70
2009,05,25,04,43,8.70
2009,05,25,04,44,8.70
2009,05,25,04,45,8.70
2009,05,25,04,46,8.70
2009,05,25,04,47,8.70
2009,05,25,04,48,8.70
2009,05,25,04,49,8.70
2009,05,25,04,50,8.70
2009,05,25,04,51,8.70
2009,05,25,04,52,8.70
2009,05,25,04,53,8.70
2009,05,25,04,54,8.70
2009,05,25,04,55,8.70
2009,05,25,04,56,8.70
2009,05,25,04,57,8.70
2009,05,25,04,58,8.70
2009,05,25,04,59,8.70
2009,05,25,05,00,8.70
2009,05,25,05,02,8.60
2009,05,25,05,03,8.60
2009,05,25,05,04,8.60
2009,05,25,05,05,8.60
2009,05,25,05,06,8.60
2009,05,25,05,08,8.60
2009,05,25,05,09,8.60
2009,05,25,05,10,8.60
2009,05,25,05,11,8.60
2009,05,25,05,12,8.60
2009,05,25,05,13,8.60
2009,05,25,05,14,8.60
2009,05,25,05,16,8.60
2009,05,25,05,17,8.60
2009,05,25,05,18,8.60
2009,05,25,05,19,8.60
2009,05,25,05,20,8.60
2009,05,25,05,21,8.60
2009,05,25,05,22,8.60
2009,05,25,05,23,8.60
2009,05,25,05,24,8.60
2009,05,25,05,25,8.50
2009,05,25,05,26,8.50
2009,05,25,05,27,8.50
2009,05,25,05,28,8.50
2009,05,25,05,29,8.50
2009,05,25,05,30,8.40
2009,05,25,05,31,8.40
2009,05,25,05,32,8.40
2009,05,25,05,33,8.40
2009,05,25,05,34,8.40
2009,05,25,05,35,8.40
2009,05,25,05,36,8.40
2009,05,25,05,37,8.40
2009,05,25,05,38,8.40
2009,05,25,05,39,8.40
2009,05,25,05,40,8.40
2009,05,25,05,41,8.40
2009,05,25,05,42,8.40
2009,05,25,05,43,8.30
2009,05,25,05,44,8.30
2009,05,25,05,45,8.30
2009,05,25,05,47,8.30
2009,05,25,05,48,8.30
2009,05,25,05,49,8.40
2009,05,25,05,50,8.40
2009,05,25,05,51,8.40
2009,05,25,05,52,8.40
2009,05,25,05,53,8.40
2009,05,25,05,54,8.40
2009,05,25,05,55,8.40
2009,05,25,05,56,8.40
2009,05,25,05,57,8.40
2009,05,25,05,58,8.40
2009,05,25,05,59,8.40
2009,05,25,06,00,8.40
2009,05,25,06,02,8.40
2009,05,25,06,03,8.40
2009,05,25,06,04,8.50
2009,05,25,06,05,8.50
2009,05,25,06,06,8.50
2009,05,25,06,07,8.60
2009,05,25,06,08,8.60
2009,05,25,06,09,8.60
2009,05,25,06,10,8.60
2009,05,25,06,11,8.60
2009,05,25,06,12,8.60
2009,05,25,06,13,8.70
2009,05,25,06,14,8.70
2009,05,25,06,15,8.70
2009,05,25,06,16,8.70
2009,05,25,06,17,8.80
2009,05,25,06,18,8.80
2009,05,25,06,19,8.90
2009,05,25,06,20,8.90
2009,05,25,06,21,9.00
2009,05,25,06,22,9.00
2009,05,25,06,23,9.10
2009,05,25,06,24,9.10
2009,05,25,06,25,9.20
2009,05,25,06,26,9.20
2009,05,25,06,27,9.30
2009,05,25,06,28,9.30
2009,05,25,06,29,9.40
2009,05,25,06,30,9.40
2009,05,25,06,31,9.50
2009,05,25,06,32,9.60
2009,05,25,06,33,9.60
2009,05,25,06,34,9.70
2009,05,25,06,35,9.70
2009,05,25,06,36,9.80
2009,05,25,06,37,9.80
2009,05,25,06,38,9.90
2009,05,25,06,40,9.90
2009,05,25,06,41,10.00
2009,05,25,06,42,10.00
2009,05,25,06,43,10.10
2009,05,25,06,44,10.10
2009,05,25,06,45,10.10
2009,05,25,06,47,10.20
2009,05,25,06,48,10.20
2009,05,25,06,49,10.20
2009,05,25,06,50,10.20
2009,05,25,06,51,10.30
2009,05,25,06,52,10.30
2009,05,25,06,53,10.30
2009,05,25,06,54,10.40
2009,05,25,06,55,10.40
2009,05,25,06,56,10.40
2009,05,25,06,57,10.50
2009,05,25,06,58,10.60
2009,05,25,06,59,10.60
2009,05,25,07,00,10.70
2009,05,25,07,02,10.80
2009,05,25,07,03,10.80
2009,05,25,07,04,10.80
2009,05,25,07,05,10.80
2009,05,25,07,06,10.90
2009,05,25,07,07,11.00
2009,05,25,07,08,11.10
2009,05,25,07,09,11.10
2009,05,25,07,10,11.20
2009,05,25,07,11,11.20
2009,05,25,07,12,11.30
2009,05,25,07,13,11.30
2009,05,25,07,14,11.40
2009,05,25,07,15,11.40
2009,05,25,07,16,11.40
2009,05,25,07,17,11.50
2009,05,25,07,18,11.60
2009,05,25,07,19,11.60
2009,05,25,07,20,11.70
2009,05,25,07,21,11.70
2009,05,25,07,22,11.70
2009,05,25,07,23,11.70
2009,05,25,07,24,11.80
2009,05,25,07,25,11.80
2009,05,25,07,26,11.90
2009,05,25,07,27,11.90
2009,05,25,07,28,11.90
2009,05,25,07,29,12.00
2009,05,25,07,30,11.90
2009,05,25,07,31,11.90
2009,05,25,07,32,11.90
2009,05,25,07,33,11.90
2009,05,25,07,34,11.90
2009,05,25,07,35,12.00
2009,05,25,07,36,12.10
2009,05,25,07,37,12.10
2009,05,25,07,38,12.10
2009,05,25,07,39,12.20
2009,05,25,07,40,12.20
2009,05,25,07,41,12.20
2009,05,25,07,42,12.20
2009,05,25,07,43,12.20
2009,05,25,07,44,12.30
2009,05,25,07,45,12.30
2009,05,25,07,46,12.40
2009,05,25,07,47,12.40
2009,05,25,07,48,12.40
2009,05,25,07,49,12.50
2009,05,25,07,50,12.60
2009,05,25,07,51,12.60
2009,05,25,07,52,12.60
2009,05,25,07,53,12.60
2009,05,25,07,54,12.70
2009,05,25,07,55,12.70
2009,05,25,07,56,12.70
2009,05,25,07,57,12.80
2009,05,25,07,58,12.80
2009,05,25,07,59,12.80
2009,05,25,08,00,12.90
2009,05,25,08,02,12.90
2009,05,25,08,03,12.90
2009,05,25,08,04,12.90
2009,05,25,08,05,12.90
2009,05,25,08,06,12.80
2009,05,25,08,07,12.80
2009,05,25,08,08,12.80
2009,05,25,08,09,12.80
2009,05,25,08,10,12.80
2009,05,25,08,11,12.80
2009,05,25,08,12,12.80
2009,05,25,08,13,12.80
2009,05,25,08,14,12.70
2009,05,25,08,15,12.70
2009,05,25,08,16,12.70
2009,05,25,08,17,12.80
2009,05,25,08,18,12.80
2009,05,25,08,19,12.80
2009,05,25,08,20,12.90
2009,05,25,08,21,13.00
2009,05,25,08,22,13.10
2009,05,25,08,23,13.10
2009,05,25,08,25,13.20
2009,05,25,08,26,13.30
2009,05,25,08,27,13.30
2009,05,25,08,28,13.40
2009,05,25,08,29,13.50
2009,05,25,08,30,13.60
2009,05,25,08,31,13.60
2009,05,25,08,32,13.60
2009,05,25,08,33,13.70
2009,05,25,08,34,13.70
2009,05,25,08,35,13.70
2009,05,25,08,36,13.80
2009,05,25,08,37,13.80
2009,05,25,08,38,13.80
2009,05,25,08,39,13.70
2009,05,25,08,40,13.70
2009,05,25,08,41,13.80
2009,05,25,08,42,13.80
2009,05,25,08,43,13.80
2009,05,25,08,44,13.90
2009,05,25,08,45,13.80
2009,05,25,08,46,13.80
2009,05,25,08,47,13.80
2009,05,25,08,48,13.60
2009,05,25,08,49,13.30
2009,05,25,08,50,13.20
2009,05,25,08,51,13.10
2009,05,25,08,52,12.90
2009,05,25,08,53,12.90
2009,05,25,08,54,12.90
2009,05,25,08,56,13.00
2009,05,25,08,57,13.00
2009,05,25,08,58,13.10
2009,05,25,08,59,13.10
2009,05,25,09,00,13.20
2009,05,25,09,02,13.20
2009,05,25,09,03,13.20
2009,05,25,09,04,13.20
2009,05,25,09,05,13.20
2009,05,25,09,06,13.20
2009,05,25,09,07,13.20
2009,05,25,09,08,13.20
2009,05,25,09,09,13.30
2009,05,25,09,10,13.40
2009,05,25,09,11,13.50
2009,05,25,09,12,13.60
2009,05,25,09,13,13.70
2009,05,25,09,14,13.80
2009,05,25,09,15,13.80
2009,05,25,09,16,13.90
2009,05,25,09,17,14.10
2009,05,25,09,18,14.20
2009,05,25,09,19,14.30
2009,05,25,09,20,14.30
2009,05,25,09,21,14.40
2009,05,25,09,22,14.50
2009,05,25,09,23,14.60
2009,05,25,09,24,14.70
2009,05,25,09,25,14.80
2009,05,25,09,26,14.90
2009,05,25,09,27,15.00
2009,05,25,09,28,15.00
2009,05,25,09,29,15.10
2009,05,25,09,30,15.20
2009,05,25,09,31,15.30
2009,05,25,09,32,15.30
2009,05,25,09,33,15.40
2009,05,25,09,34,15.40
2009,05,25,09,35,15.30
2009,05,25,09,36,15.20
2009,05,25,09,37,15.10
2009,05,25,09,38,15.20
2009,05,25,09,39,15.20
2009,05,25,09,40,15.20
2009,05,25,09,41,15.30
2009,05,25,09,42,15.40
2009,05,25,09,43,15.40
2009,05,25,09,44,15.50
2009,05,25,09,45,15.60
2009,05,25,09,46,15.70
2009,05,25,09,47,15.70
2009,05,25,09,48,15.60
2009,05,25,09,49,15.60
2009,05,25,09,50,15.70
2009,05,25,09,51,15.70
2009,05,25,09,52,15.80
2009,05,25,09,53,15.90
2009,05,25,09,54,16.00
2009,05,25,09,55,16.10
2009,05,25,09,56,16.10
2009,05,25,09,57,16.20
2009,05,25,09,58,16.20
2009,05,25,09,59,16.30
2009,05,25,10,00,16.30
2009,05,25,10,02,16.30
2009,05,25,10,03,16.30
2009,05,25,10,04,16.40
2009,05,25,10,05,16.50
2009,05,25,10,06,16.60
2009,05,25,10,07,16.70
2009,05,25,10,08,16.80
2009,05,25,10,09,16.80
2009,05,25,10,10,16.90
2009,05,25,10,11,16.90
2009,05,25,10,12,16.90
2009,05,25,10,13,16.90
2009,05,25,10,14,16.90
2009,05,25,10,15,16.90
2009,05,25,10,16,16.90
2009,05,25,10,17,17.00
2009,05,25,10,18,17.00
2009,05,25,10,19,17.10
2009,05,25,10,20,17.10
2009,05,25,10,21,17.10
2009,05,25,10,22,17.10
2009,05,25,10,23,17.10
2009,05,25,10,24,17.10
2009,05,25,10,25,17.10
2009,05,25,10,26,17.00
2009,05,25,10,27,16.90
2009,05,25,10,28,16.80
2009,05,25,10,29,16.80
2009,05,25,10,30,16.80
2009,05,25,10,31,16.80
2009,05,25,10,32,16.90
2009,05,25,10,34,16.90
2009,05,25,10,35,16.90
2009,05,25,10,36,16.80
2009,05,25,10,37,16.80
2009,05,25,10,38,16.70
2009,05,25,10,39,16.70
2009,05,25,10,40,16.70
2009,05,25,10,41,16.70
2009,05,25,10,42,16.70
2009,05,25,10,43,16.70
2009,05,25,10,44,16.70
2009,05,25,10,45,16.70
2009,05,25,10,46,16.70
2009,05,25,10,47,16.70
2009,05,25,10,48,16.80
2009,05,25,10,49,16.80
2009,05,25,10,50,16.80
2009,05,25,10,51,16.80
2009,05,25,10,52,16.80
2009,05,25,10,53,16.90
2009,05,25,10,54,16.90
2009,05,25,10,55,17.00
2009,05,25,10,56,17.00
2009,05,25,10,57,17.10
2009,05,25,10,58,17.00
2009,05,25,10,59,17.00
2009,05,25,11,00,17.10
2009,05,25,11,02,16.90
2009,05,25,11,03,16.90
2009,05,25,11,04,16.90
2009,05,25,11,05,17.00
2009,05,25,11,06,17.10
2009,05,25,11,07,17.20
2009,05,25,11,08,17.20
2009,05,25,11,09,17.30
2009,05,25,11,10,17.40
2009,05,25,11,11,17.60
2009,05,25,11,12,17.60
2009,05,25,11,13,17.70
2009,05,25,11,14,17.70
2009,05,25,11,15,17.70
2009,05,25,11,16,17.80
2009,05,25,11,17,17.90
2009,05,25,11,18,18.00
2009,05,25,11,19,18.10
2009,05,25,11,20,18.10
2009,05,25,11,21,18.20
2009,05,25,11,22,18.30
2009,05,25,11,23,18.40
2009,05,25,11,24,18.50
2009,05,25,11,25,18.70
2009,05,25,11,26,18.70
2009,05,25,11,27,18.80
2009,05,25,11,28,18.90
2009,05,25,11,29,19.00
2009,05,25,11,30,19.10
2009,05,25,11,31,19.20
2009,05,25,11,32,19.30
2009,05,25,11,33,19.40
2009,05,25,11,34,19.50
2009,05,25,11,35,19.60
2009,05,25,11,36,19.80
2009,05,25,11,37,19.80
2009,05,25,11,38,19.90
2009,05,25,11,39,20.00
2009,05,25,11,40,20.10
2009,05,25,11,41,20.20
2009,05,25,11,42,20.20
2009,05,25,11,43,20.20
2009,05,25,11,44,20.30
2009,05,25,11,45,20.30
2009,05,25,11,46,20.40
2009,05,25,11,47,20.40
2009,05,25,11,48,20.50
2009,05,25,11,49,20.50
2009,05,25,11,50,20.60
2009,05,25,11,51,20.60
2009,05,25,11,52,20.60
2009,05,25,11,53,20.70
2009,05,25,11,54,20.70
2009,05,25,11,55,20.70
2009,05,25,11,56,20.70
2009,05,25,11,57,20.80
2009,05,25,11,58,20.80
2009,05,25,11,59,20.80
2009,05,25,12,00,20.80
2009,05,25,12,02,20.80
2009,05,25,12,03,20.70
2009,05,25,12,04,20.70
2009,05,25,12,05,20.70
2009,05,25,12,06,20.60
2009,05,25,12,07,20.60
2009,05,25,12,08,20.60
2009,05,25,12,09,20.60
2009,05,25,12,10,20.60
2009,05,25,12,11,20.60
2009,05,25,12,12,20.60
2009,05,25,12,13,20.60
2009,05,25,12,14,20.60
2009,05,25,12,15,20.60
2009,05,25,12,16,20.60
2009,05,25,12,17,20.60
2009,05,25,12,18,20.60
2009,05,25,12,19,20.60
2009,05,25,12,20,20.60
2009,05,25,12,21,20.60
2009,05,25,12,22,20.60
2009,05,25,12,23,20.60
2009,05,25,12,24,20.60
2009,05,25,12,26,20.60
2009,05,25,12,27,20.60
2009,05,25,12,28,20.60
2009,05,25,12,29,20.50
2009,05,25,12,30,20.40
2009,05,25,12,31,20.40
2009,05,25,12,32,20.40
2009,05,25,12,33,20.40
2009,05,25,12,34,20.40
2009,05,25,12,36,20.40
2009,05,25,12,37,20.40
2009,05,25,12,38,20.40
2009,05,25,12,39,20.40
2009,05,25,12,40,20.40
2009,05,25,12,41,20.40
2009,05,25,12,42,20.40
2009,05,25,12,43,20.50
2009,05,25,12,44,20.50
2009,05,25,12,45,20.50
2009,05,25,12,46,20.50
2009,05,25,12,47,20.50
2009,05,25,12,48,20.50
2009,05,25,12,49,20.50
2009,05,25,12,50,20.50
2009,05,25,12,51,20.40
2009,05,25,12,52,20.40
2009,05,25,12,53,20.40
2009,05,25,12,54,20.40
2009,05,25,12,55,20.50
2009,05,25,12,56,20.50
2009,05,25,12,57,20.50
2009,05,25,12,58,20.50
2009,05,25,12,59,20.50
2009,05,25,13,00,20.50
2009,05,25,13,02,20.40
2009,05,25,13,03,20.30
2009,05,25,13,04,20.30
2009,05,25,13,05,20.20
2009,05,25,13,06,20.20
2009,05,25,13,07,20.20
2009,05,25,13,08,20.10
2009,05,25,13,09,20.10
2009,05,25,13,10,20.00
2009,05,25,13,11,20.00
2009,05,25,13,12,19.90
2009,05,25,13,13,19.90
2009,05,25,13,14,19.80
2009,05,25,13,15,19.80
2009,05,25,13,16,19.80
2009,05,25,13,17,19.70
2009,05,25,13,18,19.70
2009,05,25,13,19,19.70
2009,05,25,13,20,19.70
2009,05,25,13,21,19.70
2009,05,25,13,22,19.70
2009,05,25,13,23,19.70
2009,05,25,13,24,19.60
2009,05,25,13,25,19.60
2009,05,25,13,26,19.40
2009,05,25,13,27,19.40
2009,05,25,13,28,19.40
2009,05,25,13,29,19.40
2009,05,25,13,30,19.30
2009,05,25,13,31,19.30
2009,05,25,13,32,19.30
2009,05,25,13,33,19.30
2009,05,25,13,34,19.30
2009,05,25,13,35,19.30
2009,05,25,13,36,19.30
2009,05,25,13,37,19.30
2009,05,25,13,38,19.30
2009,05,25,13,39,19.30
2009,05,25,13,40,19.30
2009,05,25,13,41,19.30
2009,05,25,13,42,19.30
2009,05,25,13,43,19.30
2009,05,25,13,44,19.30
2009,05,25,13,45,19.20
2009,05,25,13,46,19.20
2009,05,25,13,47,19.20
2009,05,25,13,48,19.20
2009,05,25,13,49,19.20
2009,05,25,13,50,19.10
2009,05,25,13,51,19.10
2009,05,25,13,52,19.10
2009,05,25,13,53,19.00
2009,05,25,13,54,18.90
2009,05,25,13,55,18.90
2009,05,25,13,56,18.90
2009,05,25,13,57,18.80
2009,05,25,13,58,18.80
2009,05,25,13,59,18.70
2009,05,25,14,00,18.70
2009,05,25,14,02,18.60
2009,05,25,14,03,18.60
2009,05,25,14,04,18.60
2009,05,25,14,05,18.50
2009,05,25,14,06,18.40
2009,05,25,14,07,18.40
2009,05,25,14,08,18.40
2009,05,25,14,09,18.40
2009,05,25,14,10,18.30
2009,05,25,14,11,18.30
2009,05,25,14,12,18.30
2009,05,25,14,13,18.30
2009,05,25,14,14,18.30
2009,05,25,14,15,18.30
2009,05,25,14,16,18.30
2009,05,25,14,17,18.30
2009,05,25,14,18,18.30
2009,05,25,14,19,18.30
2009,05,25,14,20,18.20
2009,05,25,14,21,18.20
2009,05,25,14,22,18.20
2009,05,25,14,23,18.20
2009,05,25,14,24,18.10
2009,05,25,14,25,18.10
2009,05,25,14,26,18.10
2009,05,25,14,27,18.10
2009,05,25,14,28,18.00
2009,05,25,14,29,18.00
2009,05,25,14,30,18.00
2009,05,25,14,31,18.00
2009,05,25,14,32,18.00
2009,05,25,14,33,17.90
2009,05,25,14,34,17.90
2009,05,25,14,35,17.90
2009,05,25,14,36,17.90
2009,05,25,14,37,17.90
2009,05,25,14,38,17.80
2009,05,25,14,39,17.80
2009,05,25,14,40,17.80
2009,05,25,14,41,17.80
2009,05,25,14,42,17.80
2009,05,25,14,43,17.70
2009,05,25,14,44,17.70
2009,05,25,14,45,17.70
2009,05,25,14,46,17.70
2009,05,25,14,47,17.70
2009,05,25,14,48,17.60
2009,05,25,14,49,17.60
2009,05,25,14,50,17.60
2009,05,25,14,51,17.50
2009,05,25,14,52,17.50
2009,05,25,14,53,17.50
2009,05,25,14,54,17.40
2009,05,25,14,55,17.40
2009,05,25,14,56,17.40
2009,05,25,14,57,17.30
2009,05,25,14,58,17.30
2009,05,25,14,59,17.30
2009,05,25,15,00,17.30
2009,05,25,15,02,17.30
2009,05,25,15,03,17.20
2009,05,25,15,04,17.20
2009,05,25,15,05,17.20
2009,05,25,15,06,17.20
2009,05,25,15,07,17.20
2009,05,25,15,08,17.10
2009,05,25,15,09,17.10
2009,05,25,15,10,17.10
2009,05,25,15,11,17.10
2009,05,25,15,12,17.00
2009,05,25,15,13,17.00
2009,05,25,15,15,16.90
2009,05,25,15,16,16.90
2009,05,25,15,17,16.90
2009,05,25,15,18,16.90
2009,05,25,15,19,16.90
2009,05,25,15,20,16.90
2009,05,25,15,21,16.90
2009,05,25,15,22,16.80
2009,05,25,15,23,16.80
2009,05,25,15,24,16.80
2009,05,25,15,25,16.80
2009,05,25,15,26,16.80
2009,05,25,15,27,16.70
2009,05,25,15,28,16.70
2009,05,25,15,29,16.70
2009,05,25,15,30,16.60
2009,05,25,15,31,16.60
2009,05,25,15,32,16.50
2009,05,25,15,33,16.50
2009,05,25,15,34,16.40
2009,05,25,15,35,16.40
2009,05,25,15,36,16.40
2009,05,25,15,37,16.40
2009,05,25,15,38,16.30
2009,05,25,15,39,16.30
2009,05,25,15,40,16.30
2009,05,25,15,41,16.30
2009,05,25,15,42,16.30
2009,05,25,15,43,16.30
2009,05,25,15,44,16.30
2009,05,25,15,45,16.30
2009,05,25,15,46,16.30
2009,05,25,15,47,16.20
2009,05,25,15,48,16.20
2009,05,25,15,49,16.20
2009,05,25,15,50,16.20
2009,05,25,15,51,16.20
2009,05,25,15,52,16.20
2009,05,25,15,53,16.20
2009,05,25,15,54,16.20
2009,05,25,15,55,16.20
2009,05,25,15,56,16.20
2009,05,25,15,57,16.30
2009,05,25,15,58,16.30
2009,05,25,15,59,16.30
2009,05,25,16,00,16.30
2009,05,25,16,02,16.30
2009,05,25,16,03,16.30
2009,05,25,16,04,16.30
2009,05,25,16,05,16.30
2009,05,25,16,06,16.30
2009,05,25,16,07,16.30
2009,05,25,16,08,16.30
2009,05,25,16,09,16.30
2009,05,25,16,10,16.30
2009,05,25,16,11,16.30
2009,05,25,16,12,16.30
2009,05,25,16,13,16.20
2009,05,25,16,14,16.20
2009,05,25,16,15,16.20
2009,05,25,16,16,16.20
2009,05,25,16,17,16.20
2009,05,25,16,18,16.20
2009,05,25,16,19,16.10
2009,05,25,16,20,16.10
2009,05,25,16,21,16.10
2009,05,25,16,22,16.10
2009,05,25,16,23,16.10
2009,05,25,16,24,16.10
2009,05,25,16,25,16.00
2009,05,25,16,26,16.00
2009,05,25,16,27,15.90
2009,05,25,16,28,15.90
2009,05,25,16,29,15.90
2009,05,25,16,30,15.90
2009,05,25,16,31,15.90
2009,05,25,16,32,15.90
2009,05,25,16,33,15.90
2009,05,25,16,34,15.90
2009,05,25,16,35,15.90
2009,05,25,16,36,15.90
2009,05,25,16,37,15.90
2009,05,25,16,38,15.90
2009,05,25,16,39,15.90
2009,05,25,16,40,15.90
2009,05,25,16,41,15.90
2009,05,25,16,42,15.90
2009,05,25,16,43,15.90
2009,05,25,16,44,15.90
2009,05,25,16,45,15.90
2009,05,25,16,46,15.90
2009,05,25,16,47,15.90
2009,05,25,16,48,15.90
2009,05,25,16,49,15.90
2009,05,25,16,50,15.90
2009,05,25,16,51,15.90
2009,05,25,16,52,15.90
2009,05,25,16,53,15.90
2009,05,25,16,54,15.90
2009,05,25,16,55,15.90
2009,05,25,16,56,15.80
2009,05,25,16,57,15.80
2009,05,25,16,58,15.80
2009,05,25,16,59,15.80
2009,05,25,17,00,15.80
2009,05,25,17,02,15.80
2009,05,25,17,03,15.70
2009,05,25,17,04,15.70
2009,05,25,17,05,15.70
2009,05,25,17,06,15.70
2009,05,25,17,07,15.70
2009,05,25,17,08,15.70
2009,05,25,17,09,15.70
2009,05,25,17,10,15.70
2009,05,25,17,11,15.70
2009,05,25,17,12,15.70
2009,05,25,17,13,15.60
2009,05,25,17,14,15.60
2009,05,25,17,15,15.60
2009,05,25,17,16,15.60
2009,05,25,17,17,15.60
2009,05,25,17,18,15.60
2009,05,25,17,19,15.60
2009,05,25,17,20,15.60
2009,05,25,17,21,15.60
2009,05,25,17,22,15.60
2009,05,25,17,23,15.60
2009,05,25,17,24,15.60
2009,05,25,17,25,15.60
2009,05,25,17,26,15.60
2009,05,25,17,27,15.60
2009,05,25,17,28,15.60
2009,05,25,17,29,15.60
2009,05,25,17,30,15.60
2009,05,25,17,31,15.60
2009,05,25,17,32,15.60
2009,05,25,17,33,15.70
2009,05,25,17,34,15.60
2009,05,25,17,35,15.70
2009,05,25,17,36,15.70
2009,05,25,17,37,15.70
2009,05,25,17,38,15.70
2009,05,25,17,39,15.70
2009,05,25,17,40,15.70
2009,05,25,17,41,15.70
2009,05,25,17,42,15.70
2009,05,25,17,43,15.70
2009,05,25,17,44,15.70
2009,05,25,17,45,15.70
2009,05,25,17,46,15.70
2009,05,25,17,47,15.70
2009,05,25,17,48,15.70
2009,05,25,17,49,15.70
2009,05,25,17,50,15.70
2009,05,25,17,51,15.70
2009,05,25,17,52,15.70
2009,05,25,17,53,15.70
2009,05,25,17,54,15.70
2009,05,25,17,55,15.70
2009,05,25,17,56,15.60
2009,05,25,17,57,15.70
2009,05,25,17,58,15.70
2009,05,25,17,59,15.60
2009,05,25,18,00,15.60
2009,05,25,18,02,15.60
2009,05,25,18,03,15.60
2009,05,25,18,04,15.60
2009,05,25,18,05,15.60
2009,05,25,18,06,15.60
2009,05,25,18,07,15.60
2009,05,25,18,08,15.60
2009,05,25,18,09,15.60
2009,05,25,18,10,15.50
2009,05,25,18,11,15.50
2009,05,25,18,12,15.50
2009,05,25,18,13,15.50
2009,05,25,18,14,15.50
2009,05,25,18,15,15.60
2009,05,25,18,16,15.60